sat.trackr.live / text

‹ back to catalog

STARLINK-5705

NORAD 55472 · 2023-015Z

PAYLOAD ACTIVE UNKNOWN

§ Identity

Operator
Country
US
Launch date
2023-02-02
Launch site
AFETR
Launch vehicle
Mass (kg)
RCS (m²)

Purposes: comms

External: N2YO · Heavens-Above · Gunter

§ Orbital elements

Epoch: 2026-09-20T13:25:51.459168Z

Period
94.27 min
Inclination
43.0034°
Eccentricity
0.0001090
Mean motion
15.27478926 rev/d
Perigee alt
482.6 km
Apogee alt
484.1 km
Semi-major
6,861.5 km
B*
6.8895e-4
RAAN
301.2653°
Arg perigee
204.6567°
Mean anomaly
155.4232°
Rev number
20,060

§ Raw data

STARLINK-57051 55472U 23015Z   26263.55962337  .00018686  00000+0  68895-3 0  99902 55472  43.0034 301.2653 0001090 204.6567 155.4232 15.27478926200600

JSON: /api/v1/satellites/55472 · /tle

For live sub-satellite position, see the globe view (requires WebGL).

§ Visibility from observer

Set your observer location to see the next 7 days of passes ≥ 10°. The values pass through the URL so the page stays shareable.

No JS? Fill the form by hand. The geolocation button needs JavaScript.